Location: Balagbag Mahabang Kahoy
(14.1562°N, 120.9200°E)
Time: 04:43:00
(UTC+00:00)

Cosmos 1805 Rocket - Pass Details

Date: 16 January 2026
Orbit: 598 x 623 km, 82.5° (Epoch: 14 February)

Event Time Altitude Azimuth Distance (km) Brightness Sun altitude
Rises 20:41:02 0° 175° (S) 2,888 7.3 -24.6°
Reaches altitude 10° 20:43:18 10° 170° (S) 1,984 6.4 -24.1°
Maximum altitude 20:47:35 54° 93° (E) 753 4.2 -23.1°
Drops below altitude 10° 20:51:54 10° 16° (NNE) 1,987 6.1 -22.1°
Sets 20:54:09 0° 12° (NNE) 2,892 6.9 -21.5°
